Regional Weather Roundup
Issued by NWS

Home | Current Version | Previous Version | Graphics & Text | Print | Product List | Glossary On
Versions: 1 2 3 4 5 6 7 8 9 10 11 12 13 14 15 16 17 18 19 20 21 22 23 24 25 26 27 28 29 30 31 32 33 34 35 36 37 38 39 40 41 42 43 44 45 46 47 48 49 50
000
ASUS43 KLOT 252100
RWRIL

ILLINOIS REGIONAL WEATHER ROUNDUP
NATIONAL WEATHER SERVICE CHICAGO/ROMEOVILLE IL
400 PM CDT FRI JUL 25 2014

NOTE: "FAIR" INDICATES FEW OR NO CLOUDS BELOW 12,000 FEET WITH NO
SIGNIFICANT WEATHER AND/OR OBSTRUCTIONS TO VISIBILITY.

* THESE STATIONS ARE NOT UNDER NWS QUALITY CONTROL. THEY ALSO MAY NOT
  REPORT WEATHER SUCH AS PRECIPITATION OR FOG.

ILZ001-002-007-009-015-016-024-252200-
NORTHWEST ILLINOIS

CITY           SKY/WX    TMP DP  RH WIND       PRES   REMARKS
MOLINE         CLOUDY    75  64  68 S9        29.89R
STERLING*      CLOUDY    70  61  73 S7        29.93F
$$

ILZ003-004-008-010-011-017-018-252200-
NORTH CENTRAL ILLINOIS

CITY           SKY/WX    TMP DP  RH WIND       PRES   REMARKS
ROCKFORD       CLOUDY    69  60  73 S10       29.95F
FREEPORT*      CLOUDY    66  61  84 SE8       29.95F
$$

ILZ005-006-012>014-019>023-252200-
NORTHEAST ILLINOIS

CITY           SKY/WX    TMP DP  RH WIND       PRES   REMARKS
CHICAGO-OHARE  CLOUDY    74  56  53 SW13      29.94F
CHICAGO-MIDWAY PTSUNNY   74  59  59 SW13      29.95F
AURORA         CLOUDY    71  59  65 S8        29.96F
LANSING*       CLOUDY    72  56  58 SW12      29.97F
WAUKEGAN       CLOUDY    73  57  57 SW13G18   29.93F
DUPAGE AIRPORT CLOUDY    71  60  68 SW9       29.96F
WHEELING       PTSUNNY   75  57  53 SW10G22   29.95F
NORTHERLY ISL    N/A     72  56  57 W8          N/A
$$

LMZ740>746-252200-
SOUTHERN LAKE MICHIGAN

STATION/POSITION SKY/WX   TEMP    WIND        PRES    VSBY  WAVE
                          AIR SEA DIR/SP/G                  HT/PER
                          (F)     (DEG/KT/KT) (MB)    (MI)  (FT/S)
SOUTHERN BUOY              64 62  160/  6/  8 1014.8R         1/ 3
WAUKEGAN HARBOR            72     230/ 15/ 18   N/A
HARRISON CRIB              72     210/ 17/ 22   N/A
BURNHAM HARBOR             73     220/  8/ 15   N/A
CALUMET HARBOR             72     200/ 10/ 14 1013.4F
BURNS HARBOR               73     190/ 13/ 24 1014.9F
MICHIGAN CITY              71     180/ 16/ 22   N/A
MICHIGAN CITY 6N           71 68  220/  8/ 10   N/A           2/ 3
ST. JOSEPH                 69 65  190/ 10/ 12   N/A           2/ 3
$$

ILZ025>027-034>036-040-047-049-050-058-095>099-252200-
WEST-CENTRAL ILLINOIS

CITY           SKY/WX    TMP DP  RH WIND       PRES   REMARKS
QUINCY         SUNNY     75  61  61 S20G28    29.85F
GALESBURG*     SUNNY     74  62  66 S15G22    29.89R
MACOMB*        SUNNY     72  62  70 S18G26    29.88F
$$

ILZ028>032-037-038-041>044-048-051>054-059>061-252200-
CENTRAL ILLINOIS

CITY           SKY/WX    TMP DP  RH WIND       PRES   REMARKS
PONTIAC        CLOUDY    70  63  78 S6        29.95F
DECATUR        CLOUDY    70  61  73 SW21      29.88F
PEORIA         MOSUNNY   73  62  68 S16G24    29.89R
SPRINGFIELD    LGT RAIN  70  63  78 S9G17     29.91F
TAYLORVILLE    NOT AVBL
$$

ILZ033-039-045-046-055>057-062-063-252200-
EAST-CENTRAL ILLINOIS

CITY           SKY/WX    TMP DP  RH WIND       PRES   REMARKS
CHAMPAIGN      CLOUDY    71  62  73 S8        29.96S
MATTOON        CLOUDY    68  60  75 S14G26    29.90F
$$

ILZ079-100>102-252200-
SOUTHWEST ILLINOIS

CITY           SKY/WX    TMP DP  RH WIND       PRES   REMARKS
ALTON          SUNNY     70  68  94 S12G17    29.93F
BELLEVILLE     CLOUDY    69  64  86 VRB3      29.95F
CAHOKIA*       CLOUDY    73  63  70 SE10      29.95F
SPARTA*        CLOUDY    70  61  73 SE22      29.97F
$$

ILZ064>066-069>071-074>076-080>082-084>086-088>090-092>094-252200-
SOUTH-CENTRAL ILLINOIS

CITY           SKY/WX    TMP DP  RH WIND       PRES   REMARKS
CARBONDALE     CLOUDY    76  62  62 N5        30.09R
MT. VERNON     CLOUDY    70  63  78 SE7       30.06F
SALEM*         RAIN      68  63  83 S23G32    29.88F
$$

ILZ067-068-072-073-078-083-087-091-252200-
SOUTHEAST ILLINOIS

CITY           SKY/WX    TMP DP  RH WIND       PRES   REMARKS
LAWRENCEVILLE  LGT RAIN  72  61  68 S15       29.97F
HARRISBURG*    CLOUDY    75  62  63 CALM      30.12R
ROBINSON*      CLOUDY    72  63  75 SW12G18   29.97F
CARMI*         CLOUDY    75  64  69 NW3       30.10R
$$

ABBREVIATIONS USED IN REMARKS
   TC - TEMPERATURE IN CELSIUS
  WCI - WIND CHILL INDEX
   HX - HEAT INDEX
  VSB - VISIBILITY
$$



USA.gov is the U.S. government's official web portal to all federal, state and local government web resources and services.